Location: UMBC
(39.2555°N, 76.7093°W)
Time: 17:52:27
(UTC+01:00)

Amateur Radio Satellites - All Passes

Search period start: 18 December 2017 17:22
Search period end: 19 December 2017 17:22
Location: UMBC, 39.2555°N, 76.7093°W

Satellite Date Start Highest point End Downlink Frequencies (MHz)
Time Altitude Azimuth
AIST 2D 18 Dec 17:39:40 17:41:20 13° 268° (W) 17:43:01 435.315
POLYITAN 1 18 Dec 17:39:56 17:44:00 53° 260° (W) 17:48:06 437.675
Gurwin Techsat 1B 18 Dec 17:40:08 17:42:48 14° 60° (ENE) 17:45:28 435.225
YUBILEINY 18 Dec 17:48:42 17:52:24 13° 59° (ENE) 17:56:05 435.215
VELOX 1 18 Dec 17:50:07 17:52:17 13° 92° (E) 17:54:26 145.980
SPROUT 18 Dec 17:57:04 18:00:45 28° 96° (E) 18:04:24 437.525
NO-84 18 Dec 17:59:26 18:02:59 44° 39° (NE) 18:06:48 435.350 FM
Oscar 19 18 Dec 18:02:09 18:06:32 29° 67° (ENE) 18:10:58 437.125/150
DUCHIFAT 1 18 Dec 18:04:29 18:08:19 36° 262° (W) 18:12:09 145.980
QB50P2 18 Dec 18:06:53 18:10:15 23° 265° (W) 18:13:38 145.880/145.840
ESTCUBE 1 18 Dec 18:10:02 18:14:23 46° 288° (WNW) 18:18:42 437.505/2401.250
LO-87 18 Dec 18:13:06 18:15:51 21° 290° (WNW) 18:18:36 145.935 - 145.965
ISS 18 Dec 18:18:11 18:19:46 13° 345° (NNW) 18:21:21 437.550
AO-91 18 Dec 18:19:56 18:24:20 39° 73° (ENE) 18:28:19 145.960
BUGSAT 1 18 Dec 18:27:58 18:32:00 88° 257° (WSW) 18:36:01 437.445
NANOSAT C BR1 18 Dec 18:35:09 18:37:30 15° 267° (W) 18:39:53 145.865
AO-7 18 Dec 18:39:06 18:43:54 17° 50° (NE) 18:48:44 .
RS-15 18 Dec 18:46:45 18:57:32 38° 106° (ESE) 19:08:16 29.354- 29.394
Gurwin Techsat 1B 18 Dec 19:16:45 19:22:03 76° 257° (WSW) 19:27:24 435.225
VELOX 1 18 Dec 19:24:43 19:29:00 50° 287° (WNW) 19:33:14 145.980
ITAMSAT 1 18 Dec 19:27:36 19:28:26 10° 58° (ENE) 19:29:15 435.822/435.867
50 SAT 18 Dec 19:32:32 19:35:27 35° 99° (E) 19:38:21 437.505
SPROUT 18 Dec 19:33:08 19:36:29 23° 292° (WNW) 19:39:50 437.525
NO-84 18 Dec 19:37:07 19:40:05 21° 233° (SW) 19:43:12 435.350 FM
Oscar 19 18 Dec 19:41:12 19:45:45 32° 263° (W) 19:50:20 437.125/150
YUBILEINY 18 Dec 19:42:11 19:51:01 70° 81° (E) 19:59:43 435.215
UKube-1 18 Dec 19:42:14 19:45:59 29° 97° (E) 19:49:43 .
SO-50 18 Dec 19:51:10 19:55:15 37° 115° (ESE) 19:59:23 436.795
ISS 18 Dec 19:57:03 19:57:26 10° 6° (N) 19:57:49 437.550
AO-91 18 Dec 19:57:26 20:00:48 19° 265° (W) 20:03:57 145.960
DX 1 18 Dec 20:06:43 20:11:04 87° 283° (WNW) 20:15:23 434.975-435.025
MOZHAYETS 4 18 Dec 20:23:20 20:26:40 19° 93° (E) 20:29:58
AO-7 18 Dec 20:27:02 20:35:18 76° 69° (ENE) 20:43:38 .
M-CUBED/EXP-1 PRIME 18 Dec 20:32:41 20:37:02 66° 70° (ENE) 20:41:38 437.505
nSIGHT-1 18 Dec 20:34:57 20:36:41 14° 17° (NNE) 20:38:25 .
RS-15 18 Dec 20:57:07 21:09:21 66° 307° (NW) 21:21:31 29.354- 29.394
ITAMSAT 1 18 Dec 21:01:50 21:07:02 83° 76° (ENE) 21:12:15 435.822/435.867
UKube-1 18 Dec 21:18:26 21:21:51 23° 292° (WNW) 21:25:14 .
BEESAT 18 Dec 21:21:22 21:26:01 51° 100° (E) 21:30:38 436.000
SO-50 18 Dec 21:32:08 21:35:47 24° 312° (NW) 21:39:30 436.795
ISS 18 Dec 21:32:10 21:34:53 23° 26° (NNE) 21:37:34 437.550
YUBILEINY 18 Dec 21:40:26 21:46:54 24° 279° (W) 21:53:19 435.215
ITUPSAT 1 18 Dec 21:52:38 21:57:25 78° 286° (WNW) 22:02:11 437.325
CUBESAT XI-V 18 Dec 21:57:20 22:01:52 45° 99° (E) 22:06:21 437.345
MOZHAYETS 4 18 Dec 21:59:37 22:03:55 39° 289° (WNW) 22:08:13
DOVE 4 18 Dec 22:00:30 22:05:41 62° 75° (ENE) 22:10:40 437.250
M-CUBED/EXP-1 PRIME 18 Dec 22:10:11 22:11:50 12° 266° (W) 22:13:30 437.505
nSIGHT-1 18 Dec 22:10:15 22:13:26 57° 35° (NE) 22:16:36 .
O/OREOS (USA 219) 18 Dec 22:14:35 22:17:08 15° 55° (NE) 22:19:38 437.305
XW-2C 18 Dec 22:19:02 22:20:43 13° 66° (ENE) 22:22:25 145.795 - 145.815
HO-68 18 Dec 22:20:19 22:23:27 13° 52° (NE) 22:26:34 435.675
AO-7 18 Dec 22:22:42 22:28:44 22° 267° (W) 22:34:51 .
PCSat 18 Dec 22:42:47 22:46:59 23° 107° (ESE) 22:51:12 145.827
ITAMSAT 1 18 Dec 22:45:57 22:47:04 11° 270° (W) 22:48:11 435.822/435.867
NUDT-PHONESAT 18 Dec 22:52:40 22:55:28 21° 69° (ENE) 22:58:17 437.300
LilacSat-2 18 Dec 22:58:57 23:02:33 41° 73° (ENE) 23:06:12 437.200
CUTE-I 18 Dec 22:59:27 23:04:24 39° 69° (ENE) 23:09:21 437.470
BEESAT 18 Dec 23:00:19 23:03:21 17° 296° (WNW) 23:06:22 436.000
KAITUO 1B 18 Dec 23:03:54 23:07:12 30° 72° (ENE) 23:10:33 145.475/437.950
XW-2D 18 Dec 23:07:01 23:10:41 50° 75° (ENE) 23:14:24 145.860 - 145.880
ISS 18 Dec 23:08:19 23:11:30 47° 223° (SW) 23:14:39 437.550
RS-15 18 Dec 23:15:15 23:24:50 25° 335° (NNW) 23:34:17 29.354- 29.394
KKS-1 18 Dec 23:16:50 23:21:11 56° 101° (E) 23:25:31 437.445
XW-2B 18 Dec 23:22:57 23:26:44 78° 77° (ENE) 23:30:33 145.730 - 145.750
XW-2F 18 Dec 23:30:58 23:34:44 87° 252° (WSW) 23:38:34 145.980 - 146.000
CUBESAT XI-V 18 Dec 23:35:40 23:38:51 18° 295° (WNW) 23:42:00 437.345
DOVE 4 18 Dec 23:40:41 23:43:37 15° 269° (W) 23:46:32 437.250
STARS 18 Dec 23:47:01 23:51:14 46° 100° (E) 23:55:24 437.465
nSIGHT-1 18 Dec 23:47:39 23:49:17 13° 231° (SW) 23:50:55 .
XW-2C 18 Dec 23:50:52 23:54:28 43° 261° (W) 23:58:08 145.795 - 145.815
O/OREOS (USA 219) 18 Dec 23:52:30 23:56:54 56° 253° (WSW) 00:01:16 437.305
SEEDS 18 Dec 23:56:05 23:59:38 27° 70° (ENE) 00:03:12 437.485
AAUSAT CUBESAT 2 19 Dec 00:02:44 00:04:49 14° 65° (ENE) 00:06:54 437.432
HO-68 19 Dec 00:02:46 00:09:54 71° 71° (ENE) 00:17:04 435.675
UWE-3 19 Dec 00:17:09 00:20:30 24° 69° (ENE) 00:23:52 435.000/436.395/437.385
PCSat 19 Dec 00:24:51 00:30:03 46° 304° (WNW) 00:35:16 145.827
NUDT-PHONESAT 19 Dec 00:26:10 00:29:09 23° 265° (W) 00:32:10 437.300
CUBEBUG 2 19 Dec 00:26:14 00:30:20 58° 75° (ENE) 00:34:24 437.445
CUTE 1.7 + AOD 2 19 Dec 00:27:12 00:31:26 78° 257° (WSW) 00:35:44 437.475
ZACube-1 19 Dec 00:32:23 00:35:17 19° 67° (ENE) 00:38:12 437.345
LilacSat-2 19 Dec 00:35:24 00:37:00 12° 268° (W) 00:38:38 437.200
KAITUO 1B 19 Dec 00:38:50 00:41:13 16° 267° (W) 00:43:38 145.475/437.950
CUTE-I 19 Dec 00:40:08 00:44:30 25° 265° (W) 00:48:54 437.470
Oscar 11 19 Dec 00:44:25 00:47:00 16° 65° (ENE) 00:49:34 .
KKS-1 19 Dec 00:55:04 00:57:14 14° 297° (WNW) 00:59:23 437.445
BEESAT 3 19 Dec 00:56:44 01:00:42 84° 120° (ESE) 01:04:43 437.485
AO-73 19 Dec 01:02:27 01:06:12 35° 71° (ENE) 01:10:00 145.935
FALCONSAT 3 19 Dec 01:16:56 01:18:35 13° 153° (SSE) 01:20:13 435.103
XW-2A 19 Dec 01:22:31 01:25:49 61° 259° (W) 01:29:10 145.665 - 145.685
STARS 19 Dec 01:24:33 01:27:10 16° 295° (WNW) 01:29:45 437.465
SEEDS 19 Dec 01:31:49 01:35:15 24° 265° (W) 01:38:41 437.485
RS-15 19 Dec 01:35:06 01:43:27 20° 12° (NNE) 01:51:30 29.354- 29.394
AAUSAT CUBESAT 2 19 Dec 01:35:46 01:39:48 49° 261° (W) 01:43:53 437.432
STRAND 1 19 Dec 01:46:01 01:51:08 88° 285° (WNW) 01:56:14 437.568
BEESAT 2 19 Dec 01:47:49 01:51:49 81° 120° (ESE) 01:55:53 435.950
HO-68 19 Dec 01:53:08 01:58:11 20° 268° (W) 02:03:15 435.675
UWE-3 19 Dec 01:53:29 01:56:52 24° 265° (W) 02:00:17 435.000/436.395/437.385
DELFI C3 19 Dec 01:55:45 01:58:21 17° 67° (ENE) 02:00:58 145.870
CUBEBUG 2 19 Dec 02:06:56 02:07:18 10° 270° (W) 02:07:39 437.445
ZACube-1 19 Dec 02:07:36 02:11:19 32° 263° (W) 02:15:05 437.345
FO-29 19 Dec 02:14:20 02:20:49 54° 99° (E) 02:26:29 435.910
Oscar 11 19 Dec 02:18:36 02:22:43 45° 261° (W) 02:26:54 .
BEESAT 3 19 Dec 02:37:29 02:38:46 11° 318° (NW) 02:40:04 437.485
AO-73 19 Dec 02:39:52 02:42:33 17° 267° (W) 02:45:16 145.935
Max Valier Satellite 19 Dec 02:41:12 02:44:34 36° 73° (ENE) 02:47:58 145.860
AO-85 19 Dec 02:43:14 02:47:05 69° 120° (ESE) 02:51:09 145.980
FALCONSAT 3 19 Dec 02:53:44 02:57:05 33° 167° (SSE) 03:00:27 435.103
EO-88 19 Dec 02:58:07 03:01:31 39° 73° (ENE) 03:04:58 145.990 - 145.960
STRAND 1 19 Dec 03:28:26 03:29:31 11° 301° (WNW) 03:30:35 437.568
BEESAT 2 19 Dec 03:28:30 03:30:04 12° 318° (NW) 03:31:39 435.950
DELFI C3 19 Dec 03:29:09 03:32:48 34° 263° (W) 03:36:28 145.870
ESTCUBE 1 19 Dec 03:33:51 03:36:04 14° 63° (ENE) 03:38:18 437.505/2401.250
TIGRISAT 19 Dec 03:41:09 03:45:26 50° 100° (E) 03:49:47 435.000
UNISAT 6 19 Dec 03:45:42 03:50:04 63° 101° (ESE) 03:54:31 437.425
RS-15 19 Dec 03:48:59 04:00:14 45° 44° (NE) 04:10:51 29.354- 29.394
FO-29 19 Dec 04:00:12 04:05:18 24° 299° (WNW) 04:09:58 435.910
Max Valier Satellite 19 Dec 04:16:51 04:18:31 13° 268° (W) 04:20:12 145.860
SO-50 19 Dec 04:23:03 04:27:05 28° 49° (NE) 04:31:10 436.795
AO-85 19 Dec 04:26:07 04:28:01 13° 319° (NW) 04:29:58 145.980
FALCONSAT 3 19 Dec 04:32:20 04:35:52 46° 182° (S) 04:39:25 435.103
PRISM 19 Dec 04:33:56 04:37:58 56° 101° (E) 04:41:57 437.425
EO-88 19 Dec 04:34:03 04:35:19 11° 268° (W) 04:36:36 145.990 - 145.960
LO-87 19 Dec 04:46:44 04:50:14 66° 259° (W) 04:53:45 145.935 - 145.965
VELOX 1 19 Dec 04:47:12 04:48:47 12° 62° (ENE) 04:50:22 145.980
SPROUT 19 Dec 04:49:42 04:52:43 19° 67° (ENE) 04:55:46 437.525
EO-79 19 Dec 05:02:41 05:04:49 14° 92° (E) 05:06:57 145.935-145.965
AIST 2D 19 Dec 05:03:13 05:06:39 46° 99° (E) 05:10:02 435.315
ESTCUBE 1 19 Dec 05:07:54 05:12:20 59° 259° (W) 05:16:50 437.505/2401.250
TIGRISAT 19 Dec 05:19:15 05:21:43 15° 295° (WNW) 05:24:12 435.000
UNISAT 6 19 Dec 05:24:31 05:26:15 12° 296° (WNW) 05:28:01 437.425
POLYITAN 1 19 Dec 05:25:51 05:29:22 25° 96° (E) 05:32:53 437.675
DUCHIFAT 1 19 Dec 05:48:58 05:52:49 35° 98° (E) 05:56:40 145.980
QB50P2 19 Dec 05:51:29 05:55:40 57° 100° (E) 05:59:50 145.880/145.840
RS-15 19 Dec 06:01:44 06:13:01 58° 248° (WSW) 06:23:45 29.354- 29.394
SO-50 19 Dec 06:03:19 06:07:34 34° 246° (WSW) 06:11:51 436.795
PRISM 19 Dec 06:11:17 06:12:42 12° 297° (WNW) 06:14:08 437.425
FALCONSAT 3 19 Dec 06:11:26 06:14:37 27° 197° (SSW) 06:17:48 435.103
BUGSAT 1 19 Dec 06:11:57 06:14:01 14° 93° (E) 06:16:05 437.445
Oscar 19 19 Dec 06:17:29 06:18:15 10° 89° (E) 06:19:02 437.125/150
NANOSAT C BR1 19 Dec 06:17:57 06:22:11 89° 283° (WNW) 06:26:24 145.865
VELOX 1 19 Dec 06:20:12 06:24:38 67° 258° (WSW) 06:29:04 145.980
SPROUT 19 Dec 06:24:30 06:28:22 34° 263° (W) 06:32:14 437.525
UKube-1 19 Dec 06:35:48 06:39:09 22° 67° (ENE) 06:42:30 .
EO-79 19 Dec 06:36:45 06:40:47 46° 287° (WNW) 06:44:50 145.935-145.965
AIST 2D 19 Dec 06:38:57 06:39:21 10° 294° (WNW) 06:39:44 435.315
YUBILEINY 19 Dec 06:50:12 06:54:33 15° 76° (ENE) 06:58:55 435.215
DX 1 19 Dec 07:00:40 07:05:00 70° 75° (ENE) 07:09:23 434.975-435.025
POLYITAN 1 19 Dec 07:01:33 07:05:02 25° 291° (WNW) 07:08:32 437.675
ITUPSAT 1 19 Dec 07:23:54 07:25:37 12° 61° (ENE) 07:27:21 437.325
MOZHAYETS 4 19 Dec 07:24:42 07:27:36 17° 65° (ENE) 07:30:31
DUCHIFAT 1 19 Dec 07:25:17 07:28:12 19° 293° (WNW) 07:31:08 145.980
50 SAT 19 Dec 07:28:34 07:31:33 38° 261° (W) 07:34:32 437.505
QB50P2 19 Dec 07:29:13 07:30:56 12° 296° (WNW) 07:32:39 145.880/145.840
PCSat 19 Dec 07:31:14 07:34:55 18° 46° (NE) 07:38:35 145.827
Gurwin Techsat 1B 19 Dec 07:34:07 07:39:14 46° 99° (E) 07:44:18 435.225
BUGSAT 1 19 Dec 07:45:42 07:49:33 43° 287° (WNW) 07:53:26 437.445
AO-91 19 Dec 07:46:56 07:50:20 84° 285° (WNW) 07:53:43 145.960
Oscar 19 19 Dec 07:52:56 07:58:10 85° 285° (WNW) 08:03:22 437.125/150
UKube-1 19 Dec 08:11:09 08:14:58 30° 263° (W) 08:18:48 .
BEESAT 19 Dec 08:26:28 08:31:04 52° 72° (ENE) 08:35:41 436.000
AO-7 19 Dec 08:30:48 08:37:28 26° 95° (E) 08:44:04 .
YUBILEINY 19 Dec 08:41:03 08:49:52 83° 95° (E) 08:58:46 435.215
ITUPSAT 1 19 Dec 08:58:02 09:02:47 75° 258° (WSW) 09:07:33 437.325
CUBESAT XI-V 19 Dec 08:59:19 09:03:38 39° 71° (ENE) 09:08:00 437.345
MOZHAYETS 4 19 Dec 09:00:00 09:04:21 46° 261° (W) 09:08:46
PCSat 19 Dec 09:13:27 09:18:52 73° 244° (WSW) 09:24:15 145.827
BEESAT 3 19 Dec 09:14:23 09:17:58 32° 52° (NE) 09:21:29 437.485
Gurwin Techsat 1B 19 Dec 09:14:50 09:18:49 22° 295° (WNW) 09:22:49 435.225
ITAMSAT 1 19 Dec 09:16:07 09:20:41 31° 97° (E) 09:25:13 435.822/435.867
Oscar 19 19 Dec 09:35:34 09:36:38 11° 301° (WNW) 09:37:41 437.125/150
JUGNU 19 Dec 09:44:18 09:45:14 10° 182° (S) 09:46:10 437.505
M-CUBED/EXP-1 PRIME 19 Dec 09:46:31 09:50:50 55° 105° (ESE) 09:54:49 437.505
DOVE 4 19 Dec 10:02:16 10:04:47 15° 91° (E) 10:07:14 437.250
BEESAT 19 Dec 10:06:24 10:09:07 15° 268° (W) 10:11:52 436.000
BEESAT 2 19 Dec 10:06:25 10:10:05 33° 52° (NE) 10:13:42 435.950
KKS-1 19 Dec 10:13:31 10:17:46 45° 72° (ENE) 10:22:02 437.445
AO-7 19 Dec 10:22:27 10:30:45 68° 292° (WNW) 10:39:00 .
CUBESAT XI-V 19 Dec 10:37:45 10:41:07 20° 267° (W) 10:44:32 437.345
YUBILEINY 19 Dec 10:41:35 10:47:44 20° 295° (WNW) 10:53:57 435.215
STARS 19 Dec 10:42:22 10:46:22 36° 71° (ENE) 10:50:22 437.465
NO-84 19 Dec 10:50:31 10:53:24 77° 134° (SE) 10:56:28 435.350 FM
BEESAT 3 19 Dec 10:52:25 10:55:15 19° 249° (WSW) 10:58:03 437.485
ITAMSAT 1 19 Dec 10:55:34 11:00:03 30° 293° (WNW) 11:04:31 435.822/435.867
XW-2F 19 Dec 11:06:46 11:07:09 10° 90° (E) 11:07:32 145.980 - 146.000
AO-85 19 Dec 11:14:19 11:19:00 47° 55° (NE) 11:23:57 145.980
CUTE-I 19 Dec 11:18:34 11:21:51 16° 92° (E) 11:25:06 437.470
M-CUBED/EXP-1 PRIME 19 Dec 11:22:17 11:24:38 14° 302° (WNW) 11:26:54 437.505
STRAND 1 19 Dec 11:24:36 11:27:17 14° 61° (ENE) 11:29:56 437.568
XW-2C 19 Dec 11:24:44 11:27:35 20° 94° (E) 11:30:25 145.795 - 145.815
HO-68 19 Dec 11:34:46 11:37:37 13° 88° (E) 11:40:27 435.675
DOVE 4 19 Dec 11:38:37 11:42:43 40° 288° (WNW) 11:46:39 437.250
BEESAT 2 19 Dec 11:44:36 11:47:35 20° 249° (WSW) 11:50:31 435.950
KKS-1 19 Dec 11:51:52 11:54:32 15° 267° (W) 11:57:11 437.445
NUDT-PHONESAT 19 Dec 11:56:22 11:59:44 31° 97° (E) 12:03:05 437.300
LilacSat-2 19 Dec 12:06:50 12:10:44 75° 103° (ESE) 12:14:35 437.200
KAITUO 1B 19 Dec 12:09:05 12:12:47 49° 99° (E) 12:16:26 145.475/437.950
CUTE 1.7 + AOD 2 19 Dec 12:13:49 12:16:56 19° 93° (E) 12:20:01 437.475
XW-2D 19 Dec 12:14:08 12:18:00 89° 82° (E) 12:21:49 145.860 - 145.880
AO-7 19 Dec 12:17:44 12:21:57 15° 312° (NW) 12:26:11 .
CUBEBUG 2 19 Dec 12:19:02 12:21:12 13° 92° (E) 12:23:24 437.445
STARS 19 Dec 12:19:40 12:22:47 19° 266° (W) 12:25:55 437.465
FO-29 19 Dec 12:24:05 12:30:22 27° 62° (ENE) 12:36:34 435.910
O/OREOS (USA 219) 19 Dec 12:25:42 12:28:54 19° 100° (E) 12:32:04 437.305
SRMSAT 19 Dec 12:28:51 12:30:24 11° 181° (S) 12:31:57 437.500
NO-84 19 Dec 12:29:29 12:31:02 13° 335° (NNW) 12:32:38 435.350 FM
XW-2B 19 Dec 12:30:17 12:34:04 59° 285° (WNW) 12:37:50 145.730 - 145.750
XW-2F 19 Dec 12:37:48 12:41:31 50° 286° (WNW) 12:45:13 145.980 - 146.000
AO-85 19 Dec 12:55:25 12:59:11 22° 249° (WSW) 13:03:05 145.980
CUTE-I 19 Dec 12:57:01 13:02:15 58° 288° (WNW) 13:07:26 437.470
XW-2C 19 Dec 12:58:29 13:01:43 26° 290° (WNW) 13:04:57 145.795 - 145.815
STRAND 1 19 Dec 13:00:44 13:05:50 70° 258° (WSW) 13:10:57 437.568
SEEDS 19 Dec 13:15:28 13:19:40 59° 100° (E) 13:23:48 437.485
AAUSAT CUBESAT 2 19 Dec 13:19:00 13:22:29 26° 95° (E) 13:25:57 437.432
HO-68 19 Dec 13:19:05 13:26:18 82° 105° (ESE) 13:33:27 435.675
NUDT-PHONESAT 19 Dec 13:30:56 13:33:17 16° 292° (WNW) 13:35:39 437.300
UWE-3 19 Dec 13:42:26 13:46:49 66° 100° (E) 13:51:18 435.000/436.395/437.385
KAITUO 1B 19 Dec 13:45:10 13:46:16 11° 295° (WNW) 13:47:22 145.475/437.950
CUTE 1.7 + AOD 2 19 Dec 13:48:57 13:52:48 33° 289° (WNW) 13:56:38 437.475
CUBEBUG 2 19 Dec 13:53:50 13:58:02 50° 286° (WNW) 14:02:21 437.445
ZACube-1 19 Dec 13:55:50 14:00:07 47° 99° (E) 14:04:28 437.345
O/OREOS (USA 219) 19 Dec 14:03:40 14:07:58 39° 296° (WNW) 14:12:16 437.305
Oscar 11 19 Dec 14:06:41 14:10:40 34° 97° (E) 14:14:37 .
FO-29 19 Dec 14:06:59 14:14:44 67° 259° (W) 14:22:30 435.910
XW-2A 19 Dec 14:17:17 14:20:37 50° 285° (WNW) 14:23:56 145.665 - 145.685
AO-73 19 Dec 14:26:25 14:30:52 88° 278° (W) 14:35:22 145.935
TIGRISAT 19 Dec 14:38:54 14:42:48 36° 72° (ENE) 14:46:42 435.000
UNISAT 6 19 Dec 14:43:27 14:47:31 46° 73° (ENE) 14:51:36 437.425
nSIGHT-1 19 Dec 14:46:39 14:49:26 27° 134° (SE) 14:52:13 .
SEEDS 19 Dec 14:53:14 14:54:47 12° 296° (WNW) 14:56:20 437.485
AAUSAT CUBESAT 2 19 Dec 14:54:28 14:57:48 24° 291° (WNW) 15:01:06 437.432
DELFI C3 19 Dec 15:06:43 15:10:09 28° 96° (E) 15:13:34 145.870
HO-68 19 Dec 15:08:25 15:13:09 19° 303° (WNW) 15:17:53 435.675
UWE-3 19 Dec 15:21:12 15:22:44 12° 296° (WNW) 15:24:17 435.000/436.395/437.385
PRISM 19 Dec 15:21:49 15:25:33 34° 71° (ENE) 15:29:19 437.425
ZACube-1 19 Dec 15:33:21 15:36:00 16° 294° (WNW) 15:38:42 437.345
AIST 2D 19 Dec 15:37:18 15:39:18 15° 68° (ENE) 15:41:18 435.315
Oscar 11 19 Dec 15:43:20 15:46:33 20° 293° (WNW) 15:49:45 .
Max Valier Satellite 19 Dec 15:45:05 15:48:48 59° 100° (E) 15:52:29 145.860
ISS 19 Dec 15:47:04 15:50:20 88° 317° (NW) 15:53:38 437.550
FO-29 19 Dec 15:59:00 16:00:54 11° 276° (W) 16:02:49 435.910
EO-88 19 Dec 16:00:38 16:04:17 61° 101° (ESE) 16:07:54 145.990 - 145.960
TIGRISAT 19 Dec 16:16:47 16:19:36 17° 267° (W) 16:22:25 435.000
POLYITAN 1 19 Dec 16:17:59 16:20:42 17° 66° (ENE) 16:23:25 437.675
UNISAT 6 19 Dec 16:22:15 16:24:28 14° 268° (W) 16:26:40 437.425
nSIGHT-1 19 Dec 16:22:41 16:25:34 30° 330° (NNW) 16:28:29 .
DUCHIFAT 1 19 Dec 16:39:54 16:43:10 23° 68° (ENE) 16:46:25 145.980
DELFI C3 19 Dec 16:41:52 16:44:41 19° 292° (WNW) 16:47:28 145.870
QB50P2 19 Dec 16:42:51 16:46:41 36° 71° (ENE) 16:50:32 145.880/145.840
PRISM 19 Dec 16:58:01 17:00:53 18° 266° (W) 17:03:46 437.425
ESTCUBE 1 19 Dec 17:01:31 17:05:33 31° 97° (E) 17:09:32 437.505/2401.250
NANOSAT C BR1 19 Dec 17:08:30 17:12:34 56° 74° (ENE) 17:16:40 145.865
AIST 2D 19 Dec 17:09:03 17:12:10 30° 263° (W) 17:15:19 435.315
